Tracking 29892 objects as of 21-Nov-2024
HD Live streaming from Space Station
objects crossing your sky now

FENGYUN 1C DEB

Track FENGYUN 1C DEB now!
10-day predictions


NORAD ID: 30133
Int'l Code: 1999-025SN
Perigee: 822.4 km
Apogee: 951.2 km
Inclination: 98.3 °
Period: 102.6 minutes
Semi major axis: 7257 km
RCS: 0.0682 m2 (small)
Launch date: May 10, 1999
Source: People's Republic of China (PRC)
Launch site: Taiyaun Space Center, China (TSC)

Note: This is SATELLITE DEBRIS
Your satellite tracking list
Your tracking list is empty




NASA's NSSDC Master Catalog

Two Line Element Set (TLE):
1 30133U 99025SN  24325.00314421  .00004650  00000-0  28585-2 0  9991
2 30133  98.3151 157.2810 0088737 284.4682 233.7903 14.04090001909318
Source of the keplerian elements: AFSPC